KINEIS-4D

Last updated on Wed Oct 22 2025 00:02:42 GMT+0000 (Coordinated Universal Time)

1 63302U 25056C 25294.58457044 .00004130 00000+0 66102-3 0 9996 2 63302 97.9977 58.2455 0002001 47.9758 312.1619 14.72303220 32020
UTC large
Height (km)
Speed (km/s)
/
Latitude / Longitude
Inclination (degrees)
Orbital Period (minutes)
Azimuth
Elevation
Range (km)
Doppler Factor

Next 0 passes for location: London (51.5072 / 0.1276)

Sorry there are no passes over London.